Location: Austin
(30.3000°N, 97.7500°W)
Time: 01:59:14
(UTC-06:00)

Meteor 2-3 Rocket - Pass Details

Date: 20 November 2023
Orbit: 841 x 885 km, 81.2° (Epoch: 05 December)

Event Time Altitude Azimuth Distance (km) Brightness Sun altitude
Rises 18:55:18 0° 346° (NNW) 3,406 6.9 -17.9°
Reaches altitude 10° 18:57:45 10° 343° (NNW) 2,472 6.2 -18.4°
Maximum altitude 19:03:13 57° 266° (W) 1,000 4.4 -19.6°
Drops below altitude 10° 19:08:43 10° 189° (S) 2,484 6.4 -20.7°
Sets 19:11:11 0° 185° (S) 3,424 7.1 -21.2°
